Theta_e
327 328 328 333 338 338 342 343 345 345 344 339 342 349 350 349 350 353 346 343 334 334 343 341 338 335 341 344 342 342 345 337 336 339 341 342 342 343 342 340 337 334 332 330 329 330 331 331 330
326 326 327 332 338 341 341 339 344 345 342 337 337 341 346 349 347 349 348 344 335 337 344 346 338 335 337 343 342 345 344 337 338 338 341 341 342 341 339 337 335 332 329 332 334 336 336 336 336
320 322 329 333 337 340 341 337 339 338 336 328 334 342 346 349 347 348 348 345 337 339 342 348 338 334 334 341 343 345 340 338 337 337 340 340 339 338 337 336 334 330 333 338 341 342 341 342 342
320 323 326 328 333 337 337 336 333 333 327 326 334 341 345 350 350 349 347 345 337 338 340 349 337 334 332 334 340 339 337 337 335 339 339 338 337 337 336 333 331 332 341 344 343 341 341 340 340
322 324 323 326 325 329 334 333 333 333 330 326 340 341 346 352 351 350 348 346 340 338 339 347 335 333 332 332 333 334 335 334 336 336 336 337 337 336 333 331 330 336 343 338 331 333 333 331 332
321 323 322 322 323 325 328 329 331 330 330 326 333 346 349 352 352 350 348 347 341 338 340 346 335 333 331 332 332 333 334 335 334 334 335 336 336 335 332 330 331 341 341 329 324 323 326 327 326
321 321 320 321 321 322 323 325 325 328 328 326 333 351 354 353 353 352 350 347 342 339 339 345 345 341 332 331 333 335 335 334 335 335 335 335 335 333 331 331 333 341 328 325 322 326 328 325 325
322 322 320 321 321 321 322 323 324 325 326 325 338 351 354 353 353 352 351 349 345 341 339 342 342 344 344 342 332 333 334 334 335 336 335 336 336 332 331 331 336 330 329 328 327 328 326 325 326
321 321 321 321 321 321 323 322 323 324 324 325 333 342 349 353 353 352 351 350 347 342 340 341 340 341 341 342 343 334 333 334 335 337 337 339 341 339 340 339 340 328 329 329 329 328 326 323 325
320 320 321 321 321 321 322 322 322 323 323 325 330 335 347 352 353 353 352 349 347 343 341 341 341 340 340 340 345 343 342 341 342 342 345 342 340 342 339 342 334 328 329 329 328 327 325 324 331
320 321 321 321 320 321 322 322 322 322 322 325 328 326 338 348 353 352 351 349 346 345 344 343 343 344 342 341 344 342 341 341 342 343 344 342 340 342 338 342 336 338 333 337 332 330 327 326 329
320 321 321 320 321 321 321 321 321 322 323 325 325 324 324 342 347 350 350 349 347 345 346 345 345 347 345 343 343 343 342 342 341 342 345 342 341 341 341 341 340 340 336 335 332 329 328 327 328
319 319 319 320 321 319 319 320 320 322 322 324 324 324 326 327 343 348 348 349 349 347 347 347 347 348 347 345 345 345 344 342 341 340 342 340 339 340 342 342 343 343 340 335 333 329 327 328 327
318 318 318 319 319 319 319 319 321 322 323 323 324 325 329 340 346 349 350 350 350 350 349 348 348 349 348 347 346 346 346 344 343 340 340 342 339 339 343 345 346 346 345 337 333 329 327 328 328
319 319 319 320 320 319 320 320 321 322 322 323 324 324 324 335 344 348 348 350 350 351 351 350 350 350 350 349 348 347 346 345 344 342 340 341 341 340 344 345 348 350 350 343 332 331 328 328 328
318 319 319 320 319 319 319 319 321 322 322 322 324 324 324 325 326 330 340 346 349 351 351 351 351 351 352 350 349 347 346 346 345 344 341 341 341 341 343 342 346 349 351 342 333 333 328 328 329
320 319 319 319 319 319 319 320 321 322 322 322 323 324 324 324 325 327 326 324 340 348 350 351 352 350 352 352 351 349 348 347 345 344 343 341 339 339 341 340 344 350 349 342 333 332 329 329 329
320 320 318 318 319 318 319 320 320 321 321 322 323 323 324 326 331 332 334 333 323 334 346 350 352 352 351 352 351 349 348 346 344 344 343 341 339 337 340 338 344 350 348 340 333 332 330 329 330
318 318 318 319 319 318 318 319 320 321 321 322 322 324 328 331 331 332 335 338 334 327 344 349 351 352 352 351 350 348 347 344 342 343 343 341 340 338 339 338 340 347 346 339 335 334 332 329 331
319 319 319 317 318 318 319 320 320 321 322 325 327 329 330 331 332 333 333 336 341 340 336 346 349 351 353 351 349 346 343 345 344 342 340 342 340 339 339 340 340 345 345 338 336 333 329 329 331
319 318 318 318 320 320 321 321 321 322 326 327 328 330 332 333 335 336 336 338 341 342 343 339 347 350 352 351 349 348 344 346 346 344 342 340 337 339 339 340 340 345 344 339 337 335 331 328 331
320 318 318 320 321 320 321 318 322 324 327 329 329 331 334 336 337 338 340 342 343 344 344 340 340 349 350 351 348 347 346 344 344 344 343 341 340 338 335 336 340 345 343 339 337 335 332 331 329
319 319 320 320 321 322 322 321 323 323 325 330 332 334 335 336 338 339 341 342 343 344 346 345 343 348 348 348 348 347 347 345 345 343 343 340 341 341 339 338 342 345 343 339 336 335 333 328 326
319 320 321 321 322 323 322 322 321 323 330 332 334 334 334 334 334 335 336 338 340 342 345 348 350 350 350 348 348 347 347 347 346 345 344 344 344 343 342 339 344 345 344 338 337 335 335 330 328
320 322 324 324 322 322 322 322 323 332 331 333 334 333 332 330 331 333 333 333 335 338 341 344 347 348 351 350 349 347 347 346 346 346 348 347 347 345 344 344 344 342 341 337 336 335 335 335 331
321 323 324 325 325 323 323 322 330 329 331 331 331 330 327 326 330 329 326 326 329 332 333 336 339 341 345 348 351 349 347 348 347 347 347 348 348 348 344 343 339 337 335 335 335 335 334 333 334
320 320 319 324 324 325 324 331 330 329 329 328 329 324 323 322 327 325 321 321 326 328 331 330 330 332 335 340 343 345 349 350 350 348 348 346 344 342 338 337 335 333 330 330 328 331 333 333 334
315 317 321 320 325 329 324 325 327 332 329 325 324 323 321 320 319 319 318 319 322 323 324 325 327 329 329 332 335 340 341 342 343 345 346 342 342 340 338 334 330 329 327 328 330 328 331 333 334
318 317 318 320 323 327 328 329 331 327 324 323 321 318 319 320 320 320 319 318 317 317 319 323 326 328 327 328 329 333 338 341 340 342 342 342 342 340 337 335 332 330 329 328 329 329 328 332 333
317 320 320 323 322 321 321 324 323 319 316 316 316 316 316 316 317 317 317 318 319 319 318 320 325 327 326 325 327 329 333 338 339 337 338 342 339 338 336 335 333 331 330 327 328 329 328 331 333
Wind_Speed
2 4 6 7 7 6 5 7 3 7 3 6 2 4 3 10 5 5 5 14 24 28 27 32 31 28 26 26 31 30 28 26 25 21 19 19 16 14 12 10 9 8 7 6 6 6 5 5 4
3 4 7 5 8 8 8 1 4 4 6 4 4 7 8 5 1 8 10 12 24 29 29 28 31 29 27 27 29 29 26 26 23 21 19 18 15 13 11 9 8 7 6 6 5 4 4 4 4
2 3 6 5 8 10 5 3 2 3 4 6 4 3 3 2 3 3 6 17 25 28 28 28 33 30 27 27 28 28 26 23 21 19 18 16 14 12 10 8 7 7 6 5 5 4 4 4 4
4 6 4 10 16 4 4 5 3 4 2 6 5 5 3 3 1 2 6 21 29 28 28 28 33 31 30 28 27 27 25 22 19 18 16 15 13 10 8 7 7 6 6 5 5 5 4 4 4
6 4 10 13 16 13 3 5 6 7 4 7 7 3 2 4 1 2 10 22 29 30 28 28 34 30 29 28 28 26 24 22 20 18 15 13 11 9 8 7 7 6 5 4 4 4 4 3 2
6 5 10 13 15 10 5 8 7 9 2 5 9 5 2 4 3 4 12 21 24 27 26 27 33 32 29 27 26 25 23 22 20 18 16 13 11 9 7 7 7 6 4 3 4 4 3 2 1
13 8 14 15 10 8 7 6 12 8 10 5 11 5 4 2 5 9 15 20 23 24 26 25 26 27 28 26 24 23 21 20 19 18 16 14 12 9 7 7 6 5 4 4 4 4 2 1 1
7 7 15 12 12 11 3 8 3 8 7 7 4 2 6 6 8 10 16 19 23 23 24 24 25 25 22 20 23 22 20 19 18 16 15 13 11 9 7 7 5 4 4 5 5 3 2 0 1
5 8 12 14 9 7 4 6 4 5 11 5 2 5 5 8 11 14 16 20 23 25 25 24 25 25 23 21 20 22 21 19 18 16 15 12 9 8 7 9 7 6 5 3 2 2 2 1 1
11 11 13 2 6 6 4 4 7 9 8 9 5 7 3 9 13 15 17 21 26 28 27 26 25 25 23 21 19 20 18 17 17 15 14 12 10 9 8 8 8 7 6 3 1 1 1 1 3
11 15 7 6 9 6 7 8 7 11 12 11 4 5 4 8 11 13 15 19 25 25 25 26 26 25 24 22 21 21 19 18 18 17 16 14 12 10 10 8 8 6 5 5 2 2 2 2 2
11 12 9 6 7 10 9 7 11 11 14 9 10 11 7 10 10 13 14 15 19 25 27 27 27 26 25 23 21 19 19 18 17 18 17 15 13 12 11 10 8 7 6 4 3 2 2 3 3
16 11 8 10 9 10 10 12 13 12 13 9 8 7 7 10 10 12 13 12 16 23 26 28 27 26 26 24 21 20 19 18 16 15 17 16 15 13 12 11 9 7 5 5 4 3 2 2 3
4 15 10 8 10 9 12 13 9 12 8 11 7 5 6 3 8 11 11 12 15 20 24 26 27 25 24 24 22 22 20 18 17 16 16 17 14 13 12 11 10 8 7 5 4 3 3 3 2
7 10 12 13 12 11 10 14 16 14 6 11 9 6 3 6 6 7 8 9 12 16 21 26 27 27 26 25 24 21 19 19 18 17 17 17 17 14 13 13 12 10 8 6 5 4 4 4 4
12 10 13 7 9 10 11 13 14 6 7 11 10 7 5 2 5 4 5 8 12 16 20 22 24 26 27 25 24 23 21 20 19 18 18 19 18 16 14 14 13 10 9 8 7 6 5 6 5
10 12 11 8 8 5 14 11 7 9 7 9 11 8 5 2 5 7 6 8 12 16 18 20 23 25 25 23 21 22 21 22 20 19 19 19 19 18 17 15 14 12 11 10 9 7 6 6 7
11 13 9 10 8 10 11 12 8 10 8 9 6 5 3 3 10 10 12 11 9 14 17 20 22 24 24 23 22 23 24 25 18 24 23 21 20 20 18 17 15 13 12 11 10 8 7 7 8
6 8 8 6 3 8 13 13 12 11 12 13 6 1 4 8 8 13 15 14 11 7 13 18 21 23 25 26 26 25 25 21 24 23 19 20 18 19 19 17 16 15 13 12 11 9 9 9 9
11 12 12 6 7 9 8 12 12 11 4 2 1 5 7 10 11 13 17 18 16 9 8 14 18 21 25 24 23 21 20 22 22 18 20 21 18 17 17 17 16 15 14 13 13 12 10 12 12
13 13 10 10 8 10 8 13 11 8 9 7 6 6 8 11 13 13 15 17 18 16 13 11 16 20 24 24 21 21 19 21 19 18 15 17 26 21 20 18 18 18 17 15 15 14 14 12 12
15 12 12 10 10 11 13 11 15 15 9 6 6 8 9 11 11 12 13 16 18 18 16 11 12 16 19 21 23 24 23 22 21 17 18 16 17 23 24 23 20 20 17 17 16 15 15 15 13
14 9 13 13 12 13 13 9 8 12 11 4 7 9 10 11 13 15 16 17 17 19 18 14 6 9 13 16 22 21 23 21 19 17 17 18 16 17 19 19 19 21 20 18 16 15 16 16 16
4 9 11 11 12 15 17 13 12 12 8 5 7 9 10 11 13 15 19 20 21 21 21 18 12 4 6 12 16 20 19 19 18 18 16 16 17 17 17 18 17 16 15 15 15 15 15 18 16
11 12 10 12 12 14 15 16 5 7 9 6 7 8 9 10 12 14 17 20 23 25 24 20 18 13 12 6 11 14 18 18 19 20 18 17 16 17 17 18 13 9 6 8 10 12 15 17 18
13 14 12 15 13 13 8 10 6 8 8 8 7 6 8 10 11 13 16 19 20 22 24 24 21 20 17 11 7 9 12 14 15 19 18 16 18 13 13 14 12 11 8 1 8 11 15 17 18
8 11 7 10 9 10 6 7 6 7 7 6 7 6 8 8 8 10 15 19 19 19 19 21 21 20 19 17 14 9 8 11 11 11 12 14 16 16 16 16 15 9 6 8 5 13 16 17 17
3 2 4 4 7 13 11 8 2 12 9 7 5 4 6 6 7 9 12 15 16 16 15 18 19 19 19 19 17 13 11 9 13 15 17 18 20 21 22 24 21 16 16 10 15 11 17 19 19
6 7 5 4 8 6 7 2 7 6 5 0 3 6 7 8 8 9 11 13 14 16 19 18 17 15 17 18 18 17 12 9 7 12 16 19 18 22 19 18 21 22 19 20 23 27 23 22 20
11 12 14 10 15 11 12 5 5 6 4 3 6 6 8 9 9 9 12 15 16 15 17 17 17 14 15 15 17 18 16 12 7 7 10 12 16 14 14 15 16 22 20 19 24 27 33 28 23
Wind_Direction
283 288 293 260 257 235 114 98 103 103 158 22 322 266 247 329 351 34 106 157 160 162 167 172 176 174 172 174 176 176 171 168 163 160 157 155 152 149 143 135 127 122 117 113 111 111 113 120 129
235 284 253 281 260 234 112 65 203 35 49 354 283 256 243 267 17 114 137 161 163 162 164 170 178 177 174 175 177 177 174 168 165 161 159 157 156 152 146 137 128 121 116 111 107 109 117 128 147
206 254 270 268 259 255 93 81 37 326 323 352 328 242 316 96 94 81 115 160 163 164 165 170 177 178 178 176 177 177 174 171 167 165 163 161 159 154 147 138 131 127 123 117 113 106 109 123 137
210 197 223 252 251 197 286 121 24 325 89 354 343 261 173 72 51 70 165 166 166 167 166 177 177 178 178 178 177 177 175 174 173 169 166 163 162 157 150 141 135 130 126 118 113 117 116 122 135
214 251 249 241 250 266 236 286 305 304 325 0 357 7 249 122 67 173 168 172 171 167 168 171 176 179 180 178 179 180 179 178 174 172 170 170 168 163 159 149 143 137 131 121 119 127 128 136 156
212 273 238 240 240 236 264 276 278 283 312 347 337 304 72 93 128 146 162 169 172 167 168 169 177 179 182 182 182 183 182 181 178 177 176 177 178 175 170 161 155 147 140 137 135 130 130 126 221
252 228 249 258 269 266 271 287 262 296 289 26 326 298 79 136 122 143 152 162 167 171 170 170 172 180 185 185 187 188 188 187 186 185 184 184 184 182 178 174 167 156 146 142 139 133 132 115 315
253 261 254 245 251 245 149 257 280 275 303 332 327 14 61 84 138 141 149 158 165 176 174 173 174 178 181 186 191 194 195 195 194 196 192 191 191 189 188 183 183 166 147 137 146 149 141 100 331
240 242 244 238 245 232 160 254 261 292 269 273 304 335 12 144 153 153 157 162 170 179 180 178 179 181 183 185 192 196 200 202 202 202 203 199 195 206 215 207 209 179 168 167 160 191 191 194 306
220 235 251 303 282 249 203 244 289 285 248 260 210 123 115 171 179 172 172 173 176 181 185 184 183 184 186 187 189 191 199 202 205 210 208 201 210 204 197 204 205 194 192 199 262 188 205 254 224
217 250 267 220 252 252 277 262 248 261 261 233 284 317 180 198 200 197 193 184 188 187 187 190 186 185 188 189 188 190 199 203 208 209 209 210 211 211 203 205 201 201 219 214 204 264 286 287 235
251 236 250 248 225 250 252 285 259 250 258 298 301 299 263 208 214 207 207 197 192 190 193 195 192 188 191 193 195 194 198 204 209 212 210 209 211 212 209 208 203 203 211 208 229 244 276 246 236
235 250 245 244 242 250 263 251 255 254 256 270 286 287 254 230 209 208 217 227 200 199 197 201 197 196 194 193 196 200 201 206 214 216 216 212 216 219 215 213 211 212 209 223 237 234 243 211 225
227 240 241 237 237 229 244 247 234 241 240 266 263 268 245 224 197 199 210 216 202 201 202 203 203 202 199 199 201 203 200 206 210 219 221 217 220 223 220 219 222 222 226 226 233 233 221 232 245
226 238 222 233 237 234 231 246 230 247 256 254 251 259 260 226 199 220 218 223 219 214 208 202 204 204 204 205 205 208 209 209 211 218 221 219 217 221 224 229 232 236 225 219 204 207 224 234 237
228 239 248 189 217 221 221 246 205 172 246 251 244 257 273 293 302 305 239 232 223 219 213 209 206 207 207 208 208 210 213 213 216 218 223 219 216 217 221 228 235 236 226 211 214 224 228 231 225
204 249 214 164 207 189 212 246 174 191 235 253 259 255 271 302 64 31 356 285 238 224 219 213 210 212 211 213 215 214 212 215 218 217 220 222 218 217 220 225 230 231 230 221 215 229 231 216 219
226 220 225 250 160 224 214 246 235 232 233 237 248 262 300 9 41 19 5 344 297 241 222 218 214 212 209 211 211 221 214 219 226 222 214 215 215 214 218 225 227 223 228 222 215 214 225 233 215
260 259 254 235 237 252 247 253 245 228 224 231 210 215 357 357 12 8 4 5 355 289 228 219 213 211 205 207 209 214 221 221 214 229 208 211 214 216 215 223 227 226 222 218 210 206 213 222 213
233 237 239 255 230 222 225 242 234 222 187 82 23 39 4 350 359 5 358 356 1 351 283 233 226 217 211 214 217 221 218 229 219 219 223 222 216 217 218 222 226 226 221 211 210 207 218 227 207
228 236 230 254 163 236 257 240 213 137 144 113 65 40 20 4 354 358 359 359 354 352 338 282 234 225 219 218 217 220 225 226 227 223 230 227 221 215 213 223 220 222 211 220 214 212 215 229 222
237 213 242 225 225 244 196 259 184 163 147 93 49 34 22 15 12 9 8 7 4 352 340 321 255 230 226 221 220 216 221 223 227 227 230 220 223 221 215 217 221 220 219 219 220 218 222 230 225
251 224 222 233 242 257 203 252 197 154 166 71 54 50 41 33 31 26 20 18 13 8 1 352 313 241 228 224 227 227 229 236 229 226 221 212 216 217 218 219 217 219 217 218 220 215 218 226 236
251 225 236 241 246 237 238 213 238 182 112 107 81 63 51 42 37 37 33 31 22 21 18 17 4 324 260 238 229 235 238 235 237 223 228 216 217 216 210 213 213 223 231 218 219 222 222 223 229
219 225 227 221 226 242 239 223 239 87 95 99 94 79 60 44 38 34 31 32 28 26 23 23 24 18 359 276 243 242 236 239 235 232 224 221 215 208 200 195 196 199 228 241 245 234 241 236 230
219 242 247 254 246 235 146 218 114 114 116 106 89 69 57 46 47 41 30 21 27 29 27 26 24 18 13 358 345 260 247 242 237 230 234 209 219 178 175 163 153 150 145 217 285 266 256 248 243
184 230 352 289 276 279 217 117 147 151 147 151 127 80 55 42 49 30 24 18 17 22 25 23 21 20 18 9 359 323 277 246 250 233 200 189 177 171 158 163 163 171 195 227 305 292 265 253 245
295 72 222 229 270 262 259 255 210 174 152 138 119 65 40 23 24 25 22 17 7 8 16 13 10 14 15 13 4 346 332 282 249 221 198 190 191 177 166 157 165 165 148 149 212 246 275 256 246
180 196 229 267 229 245 263 259 13 125 100 207 41 16 5 338 341 344 351 356 356 360 358 358 359 8 12 4 359 2 346 330 295 229 216 204 188 173 177 192 188 185 203 195 190 201 237 258 245
264 269 278 249 231 239 259 243 131 121 107 59 60 39 35 14 3 358 343 334 337 340 349 356 353 355 1 2 360 358 360 354 316 286 263 214 197 215 217 213 219 221 214 206 212 214 207 231 237